| time (UTC) | temp C | wind direction | speed KPH | gust KPH | rain 1hr cm | rain 24hr cm | rain mn cm | humidity % | barometer mb |
| 20260509113332 | 7 | 174 | 1.6 | 1.6 | 0.13 | 0.23 | 0.23 | 99 | 1009.0 |
| 20260509112828 | 7 | 174 | 1.6 | 1.6 | 0.13 | 0.23 | 0.23 | 99 | 1009.1 |
| 20260509112326 | 7 | 174 | 0.0 | 1.6 | 0.00 | 0.20 | 0.20 | 99 | 1009.2 |
| 20260509111823 | 7 | 174 | 1.6 | 1.6 | 0.00 | 0.20 | 0.20 | 99 | 1009.1 |
| 20260509111320 | 7 | 174 | 1.6 | 3.2 | 0.00 | 0.20 | 0.20 | 99 | 1009.1 |
| 20260509110818 | 7 | 174 | 1.6 | 1.6 | 0.00 | 0.20 | 0.20 | 99 | 1009.2 |
| 20260509110313 | 7 | 174 | 1.6 | 1.6 | 0.00 | 0.20 | 0.20 | 99 | 1009.3 |
| 20260509105812 | 7 | 174 | 1.6 | 1.6 | 0.00 | 0.20 | 0.20 | 99 | 1009.4 |
| 20260509105309 | 7 | 174 | 1.6 | 1.6 | 0.00 | 0.20 | 0.20 | 99 | 1009.3 |
| 20260509104806 | 7 | 174 | 0.0 | 0.0 | 0.00 | 0.20 | 0.20 | 99 | 1009.3 |
| 20260509104303 | 7 | 174 | 1.6 | 1.6 | 0.18 | 0.20 | 0.20 | 99 | 1009.2 |
| 20260509103801 | 7 | 174 | 0.0 | 1.6 | 0.18 | 0.20 | 0.20 | 99 | 1009.3 |
| 20260509103257 | 7 | 174 | 0.0 | 0.0 | 0.00 | 0.18 | 0.18 | 99 | 1009.0 |
| 20260509102756 | 7 | 174 | 0.0 | 1.6 | 0.00 | 0.18 | 0.18 | 99 | 1008.9 |
| 20260509102253 | 7 | 173 | 0.0 | 1.6 | 0.00 | 0.18 | 0.18 | 99 | 1008.9 |
| 20260509101749 | 7 | 173 | 1.6 | 1.6 | 0.00 | 0.18 | 0.18 | 99 | 1009.1 |
| 20260509101245 | 7 | 173 | 0.0 | 1.6 | 0.00 | 0.18 | 0.18 | 99 | 1009.0 |
| 20260509100743 | 7 | 173 | 1.6 | 1.6 | 0.00 | 0.18 | 0.18 | 99 | 1008.8 |
| 20260509100240 | 7 | 173 | 0.0 | 0.0 | 0.00 | 0.18 | 0.18 | 99 | 1008.8 |
| 20260509095736 | 7 | 173 | 0.0 | 0.0 | 0.00 | 0.18 | 0.18 | 99 | 1009.0 |
| 20260509095234 | 7 | 173 | 0.0 | 1.6 | 0.00 | 0.18 | 0.18 | 99 | 1009.2 |
| 20260509094731 | 7 | 173 | 0.0 | 0.0 | 0.00 | 0.18 | 0.18 | 99 | 1009.2 |
| 20260509094228 | 7 | 173 | 0.0 | 1.6 | 0.00 | 0.18 | 0.18 | 99 | 1009.1 |
| 20260509093726 | 7 | 173 | 0.0 | 0.0 | 0.00 | 0.18 | 0.18 | 99 | 1009.4 |
| 20260509093222 | 7 | 173 | 0.0 | 0.0 | 0.00 | 0.18 | 0.18 | 99 | 1009.1 |
| 20260509092721 | 7 | 173 | 0.0 | 0.0 | 0.00 | 0.18 | 0.18 | 99 | 1009.3 |
| 20260509092219 | 7 | 173 | 0.0 | 0.0 | 0.00 | 0.18 | 0.18 | 99 | 1009.2 |
| 20260509091716 | 7 | 173 | 0.0 | 0.0 | 0.00 | 0.18 | 0.18 | 99 | 1009.1 |
| 20260509091212 | 7 | 174 | 0.0 | 0.0 | 0.00 | 0.18 | 0.18 | 99 | 1009.5 |
| 20260509090710 | 7 | 174 | 0.0 | 0.0 | 0.00 | 0.18 | 0.18 | 99 | 1009.5 |
| 20260509090207 | 7 | 174 | 0.0 | 0.0 | 0.00 | 0.18 | 0.18 | 99 | 1009.5 |
| 20260509085705 | 7 | 174 | 0.0 | 0.0 | 0.00 | 0.18 | 0.18 | 99 | 1009.5 |
| 20260509085201 | 7 | 174 | 0.0 | 0.0 | 0.00 | 0.18 | 0.18 | 99 | 1009.6 |
| 20260509084658 | 7 | 174 | 0.0 | 0.0 | 0.00 | 0.18 | 0.18 | 99 | 1009.5 |
| 20260509084155 | 7 | 174 | 0.0 | 0.0 | 0.00 | 0.18 | 0.18 | 99 | 1009.3 |
| 20260509083653 | 7 | 174 | 0.0 | 1.6 | 0.00 | 0.18 | 0.18 | 99 | 1009.4 |
| 20260509083149 | 7 | 174 | 0.0 | 0.0 | 0.00 | 0.18 | 0.18 | 99 | 1009.6 |
| 20260509082646 | 7 | 174 | 0.0 | 0.0 | 0.00 | 0.18 | 0.18 | 99 | 1009.5 |
| 20260509082142 | 7 | 174 | 0.0 | 1.6 | 0.00 | 0.18 | 0.18 | 99 | 1009.4 |
| 20260509081640 | 7 | 174 | 1.6 | 1.6 | 0.00 | 0.18 | 0.18 | 99 | 1009.7 |
| 20260509081137 | 7 | 174 | 1.6 | 1.6 | 0.00 | 0.18 | 0.18 | 99 | 1009.7 |
| 20260509080635 | 7 | 174 | 0.0 | 0.0 | 0.00 | 0.18 | 0.18 | 99 | 1009.8 |
| 20260509080133 | 7 | 174 | 0.0 | 1.6 | 0.00 | 0.18 | 0.18 | 99 | 1009.8 |
| 20260509075631 | 7 | 174 | 0.0 | 0.0 | 0.00 | 0.18 | 0.18 | 99 | 1009.6 |
| 20260509075128 | 7 | 174 | 0.0 | 0.0 | 0.00 | 0.18 | 0.18 | 99 | 1009.8 |
| 20260509074625 | 7 | 174 | 0.0 | 0.0 | 0.00 | 0.18 | 0.18 | 99 | 1009.3 |
| 20260509074121 | 7 | 174 | 0.0 | 0.0 | 0.00 | 0.18 | 0.18 | 99 | 1009.2 |
| 20260509073618 | 7 | 174 | 0.0 | 0.0 | 0.00 | 0.18 | 0.18 | 99 | 1009.3 |
| 20260509073114 | 7 | 174 | 1.6 | 1.6 | 0.00 | 0.18 | 0.18 | 99 | 1009.3 |
| 20260509072611 | 7 | 174 | 0.0 | 0.0 | 0.00 | 0.18 | 0.18 | 99 | 1009.3 |
| 20260509072108 | 7 | 174 | 0.0 | 0.0 | 0.00 | 0.18 | 0.18 | 99 | 1008.9 |
| 20260509071604 | 7 | 174 | 0.0 | 1.6 | 0.00 | 0.18 | 0.18 | 99 | 1009.3 |
| 20260509071102 | 7 | 174 | 1.6 | 1.6 | 0.00 | 0.18 | 0.18 | 99 | 1009.4 |
| 20260509070559 | 7 | 174 | 0.0 | 1.6 | 0.00 | 0.18 | 0.18 | 99 | 1009.6 |
| 20260509070055 | 7 | 174 | 1.6 | 1.6 | 0.13 | 0.18 | 0.18 | 99 | 1009.6 |
| 20260509065550 | 7 | 174 | 1.6 | 1.6 | 0.13 | 0.18 | 0.18 | 99 | 1009.8 |
| 20260509065047 | 7 | 174 | 0.0 | 0.0 | 0.00 | 0.15 | 0.15 | 99 | 1009.8 |
| 20260509064545 | 7 | 174 | 0.0 | 0.0 | 0.18 | 0.15 | 0.15 | 99 | 1009.8 |
| 20260509064043 | 7 | 174 | 0.0 | 1.6 | 0.30 | 0.15 | 0.15 | 98 | 1010.1 |
| 20260509063538 | 7 | 174 | 0.0 | 1.6 | 0.30 | 0.13 | 0.13 | 98 | 1009.8 |
| 20260509063036 | 7 | 174 | 1.6 | 1.6 | 0.30 | 0.10 | 0.10 | 98 | 1009.9 |
| 20260509062532 | 7 | 174 | 1.6 | 1.6 | 0.30 | 0.08 | 0.08 | 97 | 1009.8 |
| 20260509062030 | 7 | 211 | 1.6 | 1.6 | 0.30 | 0.08 | 0.08 | 97 | 1009.9 |
| 20260509061527 | 7 | 196 | 0.0 | 1.6 | 0.30 | 0.05 | 0.05 | 96 | 1010.1 |
| 20260509061024 | 7 | 204 | 0.0 | 0.0 | 0.13 | 0.03 | 0.03 | 95 | 1010.2 |
| 20260509060521 | 7 | 159 | 1.6 | 3.2 | 0.00 | 0.00 | 0.00 | 95 | 1009.8 |
| 20260509060017 | 7 | 159 | 1.6 | 3.2 | 0.00 | 0.00 | 0.00 | 94 | 1009.9 |
| 20260509055512 | 7 | 159 | 0.0 | 1.6 | 0.00 | 0.00 | 0.00 | 94 | 1010.2 |
| 20260509055009 | 7 | 159 | 1.6 | 1.6 | 0.00 | 0.00 | 0.00 | 95 | 1010.1 |
| 20260509054506 | 7 | 159 | 0.0 | 1.6 | 0.00 | 0.00 | 0.00 | 94 | 1010.1 |
| 20260509054004 | 7 | 159 | 0.0 | 0.0 | 0.00 | 0.00 | 0.00 | 93 | 1009.8 |
| 20260509053502 | 7 | 159 | 0.0 | 0.0 | 0.00 | 0.00 | 0.00 | 93 | 1009.8 |
| 20260509052959 | 7 | 159 | 0.0 | 0.0 | 0.00 | 0.00 | 0.00 | 92 | 1009.6 |
| 20260509052456 | 7 | 159 | 1.6 | 1.6 | 0.00 | 0.00 | 0.00 | 91 | 1009.6 |
| 20260509051954 | 7 | 159 | 0.0 | 0.0 | 0.00 | 0.00 | 0.00 | 90 | 1009.7 |
| 20260509051452 | 7 | 159 | 0.0 | 0.0 | 0.00 | 0.00 | 0.00 | 91 | 1009.9 |
| 20260509050948 | 7 | 159 | 1.6 | 1.6 | 0.00 | 0.00 | 0.00 | 91 | 1009.9 |
| 20260509050445 | 7 | 159 | 1.6 | 1.6 | 0.00 | 0.00 | 0.00 | 91 | 1009.8 |
| 20260509045942 | 7 | 159 | 0.0 | 1.6 | 0.00 | 0.00 | 0.00 | 90 | 1009.9 |
| 20260509045439 | 7 | 159 | 0.0 | 1.6 | 0.00 | 0.00 | 0.00 | 90 | 1010.1 |
| 20260509044936 | 7 | 159 | 1.6 | 1.6 | 0.00 | 0.00 | 0.00 | 90 | 1010.2 |
| 20260509044434 | 7 | 159 | 0.0 | 0.0 | 0.00 | 0.00 | 0.00 | 90 | 1010.1 |
| 20260509043931 | 7 | 159 | 0.0 | 0.0 | 0.00 | 0.00 | 0.00 | 91 | 1010.3 |
| 20260509043426 | 7 | 159 | 1.6 | 1.6 | 0.00 | 0.00 | 0.00 | 91 | 1010.3 |
| 20260509042922 | 7 | 159 | 0.0 | 1.6 | 0.00 | 0.00 | 0.00 | 90 | 1010.3 |
| 20260509042420 | 7 | 159 | 1.6 | 1.6 | 0.00 | 0.00 | 0.00 | 90 | 1010.3 |
| 20260509041915 | 7 | 159 | 1.6 | 1.6 | 0.00 | 0.00 | 0.00 | 90 | 1010.2 |
| 20260509041412 | 7 | 159 | 0.0 | 1.6 | 0.00 | 0.00 | 0.00 | 90 | 1010.4 |
| 20260509040910 | 7 | 159 | 1.6 | 1.6 | 0.00 | 0.00 | 0.00 | 90 | 1009.9 |
| 20260509040408 | 7 | 159 | 0.0 | 1.6 | 0.00 | 0.00 | 0.00 | 90 | 1010.2 |
| 20260509035905 | 7 | 159 | 1.6 | 1.6 | 0.00 | 0.20 | 0.20 | 90 | 1010.4 |
| 20260509035402 | 6 | 159 | 1.6 | 1.6 | 0.00 | 0.20 | 0.20 | 90 | 1010.3 |
| 20260509034858 | 6 | 159 | 1.6 | 1.6 | 0.00 | 0.20 | 0.20 | 90 | 1010.1 |
| 20260509034356 | 6 | 159 | 1.6 | 1.6 | 0.00 | 0.20 | 0.20 | 91 | 1010.3 |
| 20260509033853 | 6 | 159 | 1.6 | 1.6 | 0.00 | 0.20 | 0.20 | 92 | 1010.3 |
| 20260509033350 | 6 | 159 | 1.6 | 1.6 | 0.00 | 0.20 | 0.20 | 91 | 1010.1 |
| 20260509032846 | 6 | 159 | 0.0 | 1.6 | 0.00 | 0.20 | 0.20 | 90 | 1010.3 |
| 20260509032343 | 6 | 159 | 0.0 | 0.0 | 0.00 | 0.20 | 0.20 | 89 | 1010.2 |
| 20260509031841 | 6 | 159 | 1.6 | 1.6 | 0.00 | 0.20 | 0.20 | 89 | 1009.9 |
| 20260509031333 | 7 | 159 | 1.6 | 1.6 | 0.00 | 0.20 | 0.20 | 89 | 1009.8 |
| 20260509030830 | 7 | 159 | 0.0 | 1.6 | 0.00 | 0.20 | 0.20 | 89 | 1010.1 |
| 20260509030328 | 7 | 159 | 1.6 | 1.6 | 0.00 | 0.20 | 0.20 | 87 | 1010.3 |
| 20260509025825 | 7 | 159 | 1.6 | 1.6 | 0.00 | 0.20 | 0.20 | 87 | 1010.4 |
| 20260509025320 | 7 | 159 | 0.0 | 1.6 | 0.00 | 0.20 | 0.20 | 87 | 1010.2 |
| 20260509024816 | 7 | 159 | 0.0 | 0.0 | 0.00 | 0.20 | 0.20 | 86 | 1009.9 |
| 20260509024312 | 7 | 159 | 0.0 | 0.0 | 0.00 | 0.20 | 0.20 | 86 | 1009.8 |
| 20260509023809 | 8 | 159 | 0.0 | 0.0 | 0.00 | 0.20 | 0.20 | 84 | 1010.4 |
| 20260509023307 | 8 | 159 | 1.6 | 1.6 | 0.00 | 0.20 | 0.20 | 84 | 1010.3 |
| 20260509022803 | 8 | 159 | 0.0 | 1.6 | 0.00 | 0.20 | 0.20 | 84 | 1010.2 |
| 20260509022301 | 8 | 159 | 0.0 | 0.0 | 0.00 | 0.20 | 0.20 | 84 | 1010.3 |
| 20260509021757 | 8 | 159 | 0.0 | 0.0 | 0.00 | 0.20 | 0.20 | 84 | 1010.2 |
| 20260509021254 | 8 | 159 | 1.6 | 1.6 | 0.00 | 0.20 | 0.20 | 84 | 1010.2 |
| 20260509020752 | 8 | 159 | 0.0 | 0.0 | 0.00 | 0.20 | 0.20 | 84 | 1010.2 |
| 20260509020250 | 8 | 159 | 0.0 | 0.0 | 0.00 | 0.20 | 0.20 | 83 | 1010.2 |
| 20260509015747 | 8 | 159 | 0.0 | 0.0 | 0.00 | 0.20 | 0.20 | 84 | 1009.9 |
| 20260509015245 | 8 | 159 | 0.0 | 1.6 | 0.00 | 0.20 | 0.20 | 84 | 1009.6 |
| 20260509014741 | 8 | 159 | 0.0 | 0.0 | 0.00 | 0.20 | 0.20 | 83 | 1009.9 |
| 20260509014239 | 8 | 159 | 1.6 | 1.6 | 0.00 | 0.20 | 0.20 | 84 | 1010.1 |
| 20260509013735 | 8 | 159 | 0.0 | 0.0 | 0.00 | 0.20 | 0.20 | 83 | 1009.9 |
| 20260509013231 | 8 | 159 | 0.0 | 0.0 | 0.00 | 0.20 | 0.20 | 83 | 1009.8 |
| 20260509012728 | 8 | 159 | 0.0 | 0.0 | 0.00 | 0.20 | 0.20 | 83 | 1009.9 |
| 20260509012224 | 8 | 159 | 0.0 | 0.0 | 0.00 | 0.20 | 0.20 | 83 | 1009.6 |
| 20260509011722 | 8 | 159 | 0.0 | 0.0 | 0.00 | 0.20 | 0.20 | 83 | 1009.5 |
| 20260509011219 | 8 | 159 | 0.0 | 1.6 | 0.00 | 0.20 | 0.20 | 82 | 1009.6 |
| 20260509010717 | 8 | 159 | 0.0 | 1.6 | 0.00 | 0.20 | 0.20 | 82 | 1009.3 |
| 20260509010213 | 8 | 159 | 0.0 | 0.0 | 0.00 | 0.20 | 0.20 | 82 | 1009.2 |
| 20260509005711 | 8 | 159 | 0.0 | 1.6 | 0.00 | 0.20 | 0.20 | 82 | 1009.1 |
| 20260509005208 | 8 | 159 | 0.0 | 1.6 | 0.00 | 0.20 | 0.20 | 81 | 1009.3 |
| 20260509004702 | 8 | 159 | 0.0 | 1.6 | 0.00 | 0.20 | 0.20 | 82 | 1009.3 |
| 20260509004200 | 8 | 159 | 0.0 | 0.0 | 0.00 | 0.20 | 0.20 | 81 | 1009.3 |
| 20260509003658 | 8 | 159 | 0.0 | 0.0 | 0.00 | 0.20 | 0.20 | 80 | 1009.3 |
| 20260509003155 | 8 | 159 | 0.0 | 1.6 | 0.00 | 0.20 | 0.20 | 81 | 1009.2 |
| 20260509002653 | 8 | 159 | 0.0 | 0.0 | 0.00 | 0.20 | 0.20 | 80 | 1009.0 |
| 20260509002150 | 8 | 159 | 0.0 | 0.0 | 0.00 | 0.20 | 0.20 | 79 | 1009.5 |
| 20260509001648 | 9 | 159 | 0.0 | 1.6 | 0.00 | 0.20 | 0.20 | 79 | 1009.2 |
| 20260509001143 | 9 | 159 | 1.6 | 1.6 | 0.00 | 0.20 | 0.20 | 79 | 1009.1 |
| 20260509000641 | 9 | 160 | 0.0 | 0.0 | 0.00 | 0.20 | 0.20 | 77 | 1008.9 |
| 20260509000138 | 10 | 160 | 0.0 | 0.0 | 0.00 | 0.20 | 0.20 | 76 | 1008.7 |
| 20260508235635 | 10 | 170 | 1.6 | 1.6 | 0.00 | 0.20 | 0.20 | 75 | 1008.7 |
| 20260508235132 | 10 | 170 | 0.0 | 0.0 | 0.00 | 0.20 | 0.20 | 75 | 1008.7 |
| 20260508234629 | 10 | 170 | 0.0 | 0.0 | 0.00 | 0.20 | 0.20 | 74 | 1008.8 |
| 20260508234125 | 10 | 170 | 1.6 | 1.6 | 0.00 | 0.20 | 0.20 | 73 | 1009.0 |
| 20260508233625 | 10 | 170 | 0.0 | 0.0 | 0.00 | 0.20 | 0.20 | 71 | 1008.8 |
| 20260508233122 | 10 | 171 | 0.0 | 0.0 | 0.00 | 0.20 | 0.20 | 70 | 1008.7 |
| 20260508232619 | 11 | 171 | 0.0 | 0.0 | 0.00 | 0.20 | 0.20 | 70 | 1008.5 |
| 20260508232116 | 11 | 170 | 0.0 | 1.6 | 0.00 | 0.20 | 0.20 | 70 | 1008.6 |
| 20260508231614 | 11 | 171 | 0.0 | 0.0 | 0.00 | 0.20 | 0.20 | 68 | 1008.7 |
| 20260508231110 | 11 | 170 | 1.6 | 1.6 | 0.00 | 0.20 | 0.20 | 67 | 1008.8 |
| 20260508230607 | 11 | 171 | 1.6 | 1.6 | 0.00 | 0.20 | 0.20 | 67 | 1008.6 |
| 20260508230103 | 11 | 245 | 1.6 | 1.6 | 0.00 | 0.20 | 0.20 | 65 | 1008.5 |
| 20260508225601 | 11 | 163 | 3.2 | 3.2 | 0.00 | 0.20 | 0.20 | 65 | 1008.9 |
| 20260508225057 | 11 | 37 | 3.2 | 4.8 | 0.00 | 0.20 | 0.20 | 64 | 1008.8 |
| 20260508224555 | 11 | 208 | 0.0 | 0.0 | 0.00 | 0.20 | 0.20 | 65 | 1008.8 |
| 20260508224052 | 11 | 186 | 1.6 | 1.6 | 0.00 | 0.20 | 0.20 | 64 | 1008.6 |
| 20260508223550 | 11 | 164 | 0.0 | 0.0 | 0.00 | 0.20 | 0.20 | 66 | 1008.6 |
| 20260508223047 | 11 | 194 | 3.2 | 3.2 | 0.00 | 0.20 | 0.20 | 62 | 1008.5 |
| 20260508222544 | 11 | 197 | 1.6 | 3.2 | 0.00 | 0.20 | 0.20 | 63 | 1008.3 |
| 20260508222041 | 11 | 185 | 0.0 | 0.0 | 0.00 | 0.20 | 0.20 | 66 | 1008.2 |
| 20260508221537 | 11 | 180 | 0.0 | 0.0 | 0.00 | 0.20 | 0.20 | 67 | 1008.4 |
| 20260508221033 | 11 | 187 | 0.0 | 1.6 | 0.00 | 0.20 | 0.20 | 67 | 1008.4 |
| 20260508220530 | 11 | 175 | 0.0 | 0.0 | 0.00 | 0.20 | 0.20 | 68 | 1008.3 |
| 20260508220026 | 12 | 177 | 1.6 | 1.6 | 0.00 | 0.20 | 0.20 | 65 | 1008.6 |
| 20260508215524 | 12 | 179 | 0.0 | 1.6 | 0.00 | 0.20 | 0.20 | 63 | 1008.6 |
| 20260508215020 | 12 | 216 | 1.6 | 3.2 | 0.00 | 0.20 | 0.20 | 59 | 1008.3 |
| 20260508214518 | 12 | 219 | 0.0 | 0.0 | 0.00 | 0.20 | 0.20 | 62 | 1008.4 |
| 20260508214014 | 12 | 231 | 3.2 | 3.2 | 0.00 | 0.20 | 0.20 | 60 | 1008.5 |
| 20260508213512 | 12 | 237 | 1.6 | 3.2 | 0.00 | 0.20 | 0.20 | 60 | 1008.4 |
| 20260508213007 | 13 | 219 | 1.6 | 3.2 | 0.00 | 0.20 | 0.20 | 56 | 1008.5 |
| 20260508212504 | 12 | 190 | 1.6 | 3.2 | 0.00 | 0.20 | 0.20 | 56 | 1008.4 |
| 20260508212000 | 14 | 238 | 4.8 | 6.4 | 0.00 | 0.20 | 0.20 | 55 | 1008.4 |
| 20260508211455 | 14 | 286 | 0.0 | 1.6 | 0.00 | 0.20 | 0.20 | 54 | 1008.6 |
| 20260508210952 | 13 | 247 | 1.6 | 1.6 | 0.00 | 0.20 | 0.20 | 59 | 1008.3 |
| 20260508210449 | 12 | 217 | 3.2 | 3.2 | 0.00 | 0.20 | 0.20 | 56 | 1008.3 |
| 20260508205945 | 12 | 233 | 4.8 | 6.4 | 0.00 | 0.20 | 0.20 | 57 | 1008.4 |
| 20260508205443 | 12 | 229 | 3.2 | 3.2 | 0.00 | 0.20 | 0.20 | 57 | 1008.4 |
| 20260508204939 | 12 | 164 | 1.6 | 3.2 | 0.00 | 0.20 | 0.20 | 59 | 1008.5 |
| 20260508204437 | 12 | 248 | 3.2 | 4.8 | 0.00 | 0.20 | 0.20 | 58 | 1008.4 |
| 20260508203931 | 12 | 248 | 3.2 | 3.2 | 0.00 | 0.20 | 0.20 | 55 | 1008.6 |
| 20260508203428 | 13 | 229 | 4.8 | 9.7 | 0.00 | 0.20 | 0.20 | 54 | 1008.4 |
| 20260508202924 | 14 | 223 | 11.3 | 12.9 | 0.00 | 0.20 | 0.20 | 52 | 1008.3 |
| 20260508202421 | 14 | 229 | 6.4 | 11.3 | 0.00 | 0.20 | 0.20 | 52 | 1008.6 |
| 20260508201918 | 15 | 235 | 3.2 | 4.8 | 0.00 | 0.20 | 0.20 | 56 | 1008.5 |
| 20260508201415 | 14 | 224 | 6.4 | 11.3 | 0.00 | 0.20 | 0.20 | 54 | 1008.5 |
| 20260508200911 | 13 | 225 | 6.4 | 6.4 | 0.00 | 0.20 | 0.20 | 55 | 1008.6 |
| 20260508200409 | 13 | 258 | 6.4 | 6.4 | 0.00 | 0.20 | 0.20 | 55 | 1008.6 |
| 20260508195904 | 13 | 222 | 1.6 | 1.6 | 0.00 | 0.20 | 0.20 | 58 | 1008.5 |
| 20260508195401 | 12 | 240 | 3.2 | 4.8 | 0.00 | 0.20 | 0.20 | 63 | 1008.6 |
| 20260508194857 | 13 | 217 | 3.2 | 4.8 | 0.00 | 0.20 | 0.20 | 59 | 1008.7 |
| 20260508194354 | 13 | 225 | 4.8 | 4.8 | 0.00 | 0.20 | 0.20 | 56 | 1008.9 |
| 20260508193851 | 13 | 196 | 6.4 | 6.4 | 0.00 | 0.20 | 0.20 | 60 | 1008.7 |
| 20260508193348 | 13 | 230 | 9.7 | 11.3 | 0.00 | 0.20 | 0.20 | 58 | 1008.9 |
| 20260508192844 | 13 | 250 | 3.2 | 4.8 | 0.00 | 0.20 | 0.20 | 63 | 1008.7 |
| 20260508192341 | 12 | 187 | 6.4 | 9.7 | 0.00 | 0.20 | 0.20 | 62 | 1008.9 |
| 20260508191838 | 12 | 233 | 3.2 | 4.8 | 0.00 | 0.20 | 0.20 | 61 | 1008.8 |
| 20260508191336 | 13 | 233 | 11.3 | 12.9 | 0.00 | 0.20 | 0.20 | 61 | 1008.9 |
| 20260508190833 | 12 | 239 | 8.0 | 9.7 | 0.00 | 0.20 | 0.20 | 65 | 1008.8 |
| 20260508190329 | 11 | 258 | 4.8 | 6.4 | 0.00 | 0.20 | 0.20 | 68 | 1009.1 |
| 20260508185826 | 11 | 317 | 3.2 | 4.8 | 0.00 | 0.20 | 0.20 | 69 | 1009.1 |
| 20260508185323 | 11 | 286 | 4.8 | 4.8 | 0.00 | 0.20 | 0.20 | 69 | 1009.3 |
| 20260508184820 | 12 | 269 | 9.7 | 14.5 | 0.00 | 0.20 | 0.20 | 66 | 1009.5 |
| 20260508184318 | 11 | 202 | 9.7 | 12.9 | 0.00 | 0.20 | 0.20 | 68 | 1009.3 |
| 20260508183814 | 11 | 243 | 6.4 | 9.7 | 0.00 | 0.20 | 0.20 | 71 | 1009.3 |
| 20260508183311 | 10 | 189 | 1.6 | 3.2 | 0.00 | 0.20 | 0.20 | 77 | 1009.4 |
| 20260508182806 | 10 | 230 | 4.8 | 6.4 | 0.00 | 0.20 | 0.20 | 76 | 1009.3 |
| 20260508182306 | 10 | 224 | 4.8 | 4.8 | 0.00 | 0.20 | 0.20 | 77 | 1009.5 |
| 20260508181753 | 11 | 230 | 9.7 | 11.3 | 0.00 | 0.20 | 0.20 | 73 | 1009.3 |
| 20260508181250 | 10 | 248 | 3.2 | 4.8 | 0.00 | 0.20 | 0.20 | 74 | 1009.3 |
| 20260508180747 | 10 | 239 | 6.4 | 9.7 | 0.00 | 0.20 | 0.20 | 76 | 1009.4 |
| 20260508180244 | 8 | 213 | 8.0 | 9.7 | 0.00 | 0.20 | 0.20 | 77 | 1009.4 |
| 20260508175741 | 8 | 350 | 3.2 | 3.2 | 0.00 | 0.20 | 0.20 | 77 | 1009.3 |
| 20260508175237 | 9 | 237 | 8.0 | 12.9 | 0.00 | 0.20 | 0.20 | 71 | 1009.3 |
| 20260508174735 | 10 | 241 | 6.4 | 6.4 | 0.00 | 0.20 | 0.20 | 69 | 1009.1 |
| 20260508174232 | 9 | 80 | 4.8 | 6.4 | 0.00 | 0.20 | 0.20 | 70 | 1009.0 |
| 20260508173728 | 10 | 260 | 8.0 | 9.7 | 0.00 | 0.20 | 0.20 | 68 | 1009.0 |
| 20260508173225 | 10 | 265 | 6.4 | 6.4 | 0.00 | 0.20 | 0.20 | 67 | 1009.1 |
| 20260508172722 | 10 | 227 | 1.6 | 3.2 | 0.00 | 0.20 | 0.20 | 66 | 1008.7 |
| 20260508172219 | 10 | 224 | 3.2 | 4.8 | 0.00 | 0.20 | 0.20 | 64 | 1008.9 |
| 20260508171715 | 10 | 239 | 4.8 | 4.8 | 0.00 | 0.20 | 0.20 | 64 | 1009.0 |
| 20260508171211 | 10 | 334 | 4.8 | 4.8 | 0.00 | 0.20 | 0.20 | 63 | 1008.8 |
| 20260508170708 | 10 | 211 | 3.2 | 4.8 | 0.00 | 0.20 | 0.20 | 63 | 1008.7 |
| 20260508170206 | 10 | 227 | 3.2 | 4.8 | 0.00 | 0.20 | 0.20 | 62 | 1008.6 |
| 20260508165703 | 10 | 248 | 4.8 | 4.8 | 0.00 | 0.20 | 0.20 | 65 | 1008.6 |
| 20260508165200 | 11 | 71 | 3.2 | 4.8 | 0.00 | 0.20 | 0.20 | 65 | 1008.6 |
| 20260508164656 | 11 | 239 | 1.6 | 3.2 | 0.00 | 0.20 | 0.20 | 64 | 1008.8 |
| 20260508164153 | 11 | 217 | 3.2 | 3.2 | 0.00 | 0.20 | 0.20 | 63 | 1008.9 |
| 20260508163651 | 11 | 274 | 6.4 | 9.7 | 0.00 | 0.20 | 0.20 | 61 | 1008.7 |
| 20260508163148 | 11 | 244 | 8.0 | 9.7 | 0.00 | 0.20 | 0.20 | 63 | 1008.6 |
| 20260508162643 | 11 | 168 | 1.6 | 3.2 | 0.00 | 0.20 | 0.20 | 66 | 1009.0 |
| 20260508162141 | 11 | 174 | 3.2 | 3.2 | 0.00 | 0.20 | 0.20 | 63 | 1009.1 |
| 20260508161638 | 11 | 100 | 3.2 | 4.8 | 0.00 | 0.20 | 0.20 | 65 | 1008.7 |
| 20260508161135 | 11 | 104 | 0.0 | 1.6 | 0.00 | 0.20 | 0.20 | 61 | 1009.0 |
| 20260508160634 | 11 | 214 | 4.8 | 4.8 | 0.00 | 0.20 | 0.20 | 64 | 1008.7 |
| 20260508160131 | 11 | 221 | 3.2 | 4.8 | 0.00 | 0.20 | 0.20 | 59 | 1009.1 |
| 20260508155628 | 12 | 119 | 6.4 | 9.7 | 0.00 | 0.20 | 0.20 | 58 | 1008.8 |
| 20260508155124 | 12 | 150 | 1.6 | 1.6 | 0.00 | 0.20 | 0.20 | 63 | 1009.2 |
| 20260508154621 | 10 | 242 | 4.8 | 6.4 | 0.00 | 0.20 | 0.20 | 64 | 1009.1 |
| 20260508154118 | 9 | 218 | 4.8 | 6.4 | 0.00 | 0.20 | 0.20 | 71 | 1009.2 |
| 20260508153615 | 9 | 248 | 6.4 | 11.3 | 0.00 | 0.20 | 0.20 | 64 | 1009.4 |
| 20260508153112 | 10 | 112 | 4.8 | 6.4 | 0.00 | 0.20 | 0.20 | 64 | 1009.1 |
| 20260508152609 | 10 | 345 | 1.6 | 4.8 | 0.00 | 0.20 | 0.20 | 62 | 1009.0 |
| 20260508152104 | 11 | 195 | 4.8 | 4.8 | 0.00 | 0.20 | 0.20 | 63 | 1009.1 |
| 20260508151601 | 11 | 226 | 3.2 | 3.2 | 0.00 | 0.20 | 0.20 | 62 | 1009.0 |
| 20260508151058 | 11 | 203 | 1.6 | 3.2 | 0.00 | 0.20 | 0.20 | 60 | 1009.1 |
| 20260508150555 | 11 | 207 | 3.2 | 4.8 | 0.00 | 0.20 | 0.20 | 68 | 1009.2 |
| 20260508150050 | 10 | 213 | 4.8 | 6.4 | 0.00 | 0.20 | 0.20 | 63 | 1009.2 |
| 20260508145542 | 10 | 246 | 4.8 | 4.8 | 0.00 | 0.20 | 0.20 | 69 | 1009.1 |
| 20260508145038 | 10 | 176 | 1.6 | 3.2 | 0.00 | 0.20 | 0.20 | 67 | 1009.3 |
| 20260508144536 | 10 | 218 | 3.2 | 3.2 | 0.00 | 0.20 | 0.20 | 66 | 1009.3 |
| 20260508144033 | 10 | 174 | 3.2 | 3.2 | 0.00 | 0.20 | 0.20 | 69 | 1009.2 |
| 20260508143531 | 8 | 226 | 4.8 | 4.8 | 0.00 | 0.20 | 0.20 | 75 | 1009.4 |
| 20260508143026 | 8 | 183 | 1.6 | 1.6 | 0.00 | 0.20 | 0.20 | 77 | 1009.3 |
| 20260508142518 | 9 | 173 | 4.8 | 4.8 | 0.00 | 0.20 | 0.20 | 73 | 1009.4 |
| 20260508142015 | 10 | 207 | 3.2 | 3.2 | 0.00 | 0.20 | 0.20 | 70 | 1009.3 |
| 20260508141511 | 10 | 25 | 1.6 | 1.6 | 0.00 | 0.20 | 0.20 | 74 | 1009.4 |
| 20260508141009 | 10 | 178 | 3.2 | 3.2 | 0.00 | 0.20 | 0.20 | 71 | 1009.5 |
| 20260508140506 | 9 | 235 | 4.8 | 4.8 | 0.00 | 0.20 | 0.20 | 75 | 1009.3 |
| 20260508140002 | 9 | 198 | 3.2 | 3.2 | 0.00 | 0.20 | 0.20 | 74 | 1009.3 |
| 20260508135458 | 9 | 82 | 0.0 | 1.6 | 0.00 | 0.20 | 0.20 | 71 | 1009.3 |
| 20260508134955 | 10 | 53 | 1.6 | 1.6 | 0.00 | 0.20 | 0.20 | 74 | 1009.4 |
| 20260508134451 | 8 | 195 | 0.0 | 0.0 | 0.00 | 0.20 | 0.20 | 76 | 1009.7 |
| 20260508133948 | 8 | 224 | 1.6 | 1.6 | 0.00 | 0.20 | 0.20 | 85 | 1009.6 |
| 20260508133445 | 7 | 203 | 4.8 | 4.8 | 0.00 | 0.20 | 0.20 | 84 | 1009.7 |
| 20260508132942 | 8 | 210 | 0.0 | 0.0 | 0.00 | 0.20 | 0.20 | 83 | 1009.6 |
| 20260508132440 | 7 | 232 | 3.2 | 3.2 | 0.00 | 0.20 | 0.20 | 84 | 1009.6 |
| 20260508131937 | 7 | 35 | 1.6 | 3.2 | 0.00 | 0.20 | 0.20 | 86 | 1009.9 |
| 20260508131432 | 8 | 213 | 3.2 | 4.8 | 0.00 | 0.20 | 0.20 | 87 | 1009.9 |
| 20260508130929 | 7 | 211 | 3.2 | 3.2 | 0.00 | 0.20 | 0.20 | 85 | 1009.9 |
| 20260508130426 | 7 | 210 | 0.0 | 0.0 | 0.00 | 0.20 | 0.20 | 91 | 1010.1 |
| 20260508125922 | 7 | 159 | 1.6 | 1.6 | 0.00 | 0.20 | 0.20 | 90 | 1009.9 |
| 20260508125418 | 7 | 199 | 0.0 | 1.6 | 0.00 | 0.20 | 0.20 | 95 | 1009.8 |
| 20260508124916 | 6 | 263 | 3.2 | 3.2 | 0.00 | 0.20 | 0.20 | 96 | 1009.7 |
| 20260508124413 | 6 | 181 | 1.6 | 1.6 | 0.00 | 0.20 | 0.20 | 97 | 1009.7 |
| 20260508123911 | 5 | 138 | 0.0 | 1.6 | 0.00 | 0.20 | 0.20 | 98 | 1009.9 |
| 20260508123410 | 5 | 178 | 1.6 | 1.6 | 0.00 | 0.20 | 0.20 | 99 | 1009.9 |
| 20260508122905 | 5 | 189 | 1.6 | 1.6 | 0.00 | 0.20 | 0.20 | 99 | 1009.8 |
| 20260508122403 | 5 | 173 | 3.2 | 3.2 | 0.00 | 0.20 | 0.20 | 99 | 1009.8 |
| 20260508121900 | 5 | 173 | 3.2 | 3.2 | 0.00 | 0.20 | 0.20 | 99 | 1009.5 |
| 20260508121358 | 5 | 172 | 1.6 | 3.2 | 0.00 | 0.20 | 0.20 | 99 | 1009.6 |
| 20260508120855 | 5 | 153 | 0.0 | 0.0 | 0.00 | 0.20 | 0.20 | 99 | 1009.6 |
| 20260508120353 | 4 | 151 | 1.6 | 1.6 | 0.00 | 0.20 | 0.20 | 99 | 1009.9 |
| 20260508115850 | 4 | 160 | 1.6 | 1.6 | 0.00 | 0.20 | 0.20 | 99 | 1009.8 |
| 20260508115348 | 3 | 154 | 0.0 | 1.6 | 0.00 | 0.20 | 0.20 | 99 | 1009.7 |
| 20260508114844 | 3 | 158 | 0.0 | 0.0 | 0.00 | 0.20 | 0.20 | 99 | 1009.9 |
| 20260508114341 | 3 | 159 | 0.0 | 0.0 | 0.00 | 0.20 | 0.20 | 99 | 1009.9 |
| 20260508113838 | 3 | 126 | 1.6 | 1.6 | 0.00 | 0.20 | 0.20 | 99 | 1009.6 |